Weather History for Teterboro, NJ

Change the Weather History Date:

Wednesday, October 9, 2013

  Actual Average Record
Temperature  
Mean Temperature 58 °F -  
Max Temperature 64 °F 66 °F 87 °F (2011)
Min Temperature 53 °F 46 °F 30 °F (2001)
Degree Days  
Heating Degree Days 7    
Growing Degree Days 8 (Base 50)    
Moisture  
Dew Point 44 °F    
Average Humidity 59    
Maximum Humidity 70    
Minimum Humidity 48    
Precipitation  
Precipitation 0.00 in - - ()
Sea Level Pressure  
Sea Level Pressure 30.34 in    
Wind  
Wind Speed 6 mph (NE)    
Max Wind Speed 14 mph    
Max Gust Speed 22 mph    
Visibility 10 miles    
Events      
Averages and records for this station are not official NWS values.
T = Trace of Precipitation, MM = Missing Value Source: NWS Daily Summary

Daily Weather History Graph

Daily Weather History Graph

Search for Another Location

Airport:

Trip Planner

Search our weather history database for the weather conditions in past years. The results will help you decide how hot, cold, wet, or windy it might be!

Date:

Astronomy

Oct. 09, 2013 Rise Set
Actual Time 7:01 AM EDT 6:24 PM EDT
Civil Twilight 6:33 AM EDT 6:52 PM EDT
Nautical Twilight 6:02 AM EDT 7:23 PM EDT
Astronomical Twilight 5:30 AM EDT 7:55 PM EDT
Moon 11:55 AM EDT (10/9) 9:55 PM EDT (10/9)
Length of Visible Light 12h 18m
Length of Day
11h 23m
Waxing Crescent, 25% of the Moon is Illuminated
Oct 9
Waxing Crescent
Oct 11
First Quarter
Oct 18
Full
Oct 26
Last Quarter
Nov 3
New

Hourly Weather History & Observations

Time (EDT) Temp. Dew Point Humidity Pressure Visibility Wind Dir Wind Speed Gust Speed Precip Events Conditions
12:51 AM 55.9 °F 45.0 °F 67% 30.32 in 10.0 mi NNE 4.6 mph - N/A   Clear
1:51 AM 55.0 °F 44.1 °F 67% 30.33 in 10.0 mi North 3.5 mph - N/A   Clear
2:51 AM 55.0 °F 42.1 °F 62% 30.34 in 10.0 mi North 4.6 mph - N/A   Clear
3:51 AM 54.0 °F 42.1 °F 64% 30.33 in 10.0 mi North 4.6 mph - N/A   Clear
4:51 AM 54.0 °F 39.9 °F 59% 30.33 in 10.0 mi North 4.6 mph - N/A   Clear
5:51 AM 53.1 °F 39.9 °F 61% 30.35 in 10.0 mi NNE 3.5 mph - N/A   Clear
6:51 AM 53.1 °F 39.0 °F 59% 30.35 in 10.0 mi NNE 4.6 mph - N/A   Clear
7:51 AM 54.0 °F 41.0 °F 62% 30.38 in 10.0 mi North 6.9 mph - N/A   Clear
8:51 AM 55.0 °F 42.1 °F 62% 30.41 in 10.0 mi North 6.9 mph - N/A   Clear
9:51 AM 57.0 °F 43.0 °F 59% 30.40 in 10.0 mi NNE 8.1 mph - N/A   Clear
10:51 AM 59.0 °F 42.1 °F 53% 30.39 in 10.0 mi NE 10.4 mph 18.4 mph N/A   Clear
11:51 AM 61.0 °F 43.0 °F 52% 30.39 in 10.0 mi NE 9.2 mph - N/A   Clear
12:51 PM 62.1 °F 44.1 °F 52% 30.38 in 10.0 mi East 10.4 mph - N/A   Clear
1:51 PM 63.0 °F 45.0 °F 52% 30.36 in 10.0 mi ENE 13.8 mph 21.9 mph N/A   Partly Cloudy
2:51 PM 63.0 °F 45.0 °F 52% 30.35 in 10.0 mi ENE 6.9 mph 20.7 mph N/A   Mostly Cloudy
3:51 PM 63.0 °F 43.0 °F 48% 30.35 in 10.0 mi East 9.2 mph - N/A   Clear
4:51 PM 63.0 °F 44.1 °F 50% 30.34 in 10.0 mi East 6.9 mph - N/A   Clear
5:51 PM 62.1 °F 45.0 °F 53% 30.32 in 10.0 mi East 5.8 mph - N/A   Clear
6:51 PM 61.0 °F 45.0 °F 56% 30.33 in 10.0 mi NNE 4.6 mph - N/A   Clear
7:51 PM 61.0 °F 46.0 °F 58% 30.30 in 10.0 mi NNE 4.6 mph - N/A   Clear
8:51 PM 60.1 °F 46.0 °F 60% 30.31 in 10.0 mi NNE 4.6 mph - N/A   Clear
9:51 PM 60.1 °F 48.0 °F 64% 30.30 in 10.0 mi Calm Calm - N/A   Clear
10:51 PM 57.9 °F 48.0 °F 70% 30.30 in 10.0 mi North 4.6 mph - N/A   Clear
11:51 PM 57.9 °F 46.9 °F 67% 30.30 in 10.0 mi NE 4.6 mph - N/A   Clear